PRPSB SBCY-SBSI

Flight info

Callsign PRPSB
Flight time 0h 48m
Altitude 27000
Route EQUAL
Aircraft E145/L-L/2000

Departure

Time 2026-04-22 00:18
Airport Várzea Grande–Marechal Rondon International Airport (SBCY)

Arrival

Time 2026-04-22 01:06
Airport Presidente João Batista Figueiredo Airport (SBSI)
Time Latitude Longitude Altitude Speed Heading
2026-04-21 23:48 -15.64893 -56.12066 620 ft 0 kts 243°
2026-04-22 00:09 -15.64894 -56.12066 620 ft 0 kts 243°
2026-04-22 00:10 -15.64890 -56.12059 620 ft 1 kts 243°
2026-04-22 00:10 -15.64885 -56.12051 620 ft 2 kts 232°
2026-04-22 00:10 -15.64874 -56.12040 620 ft 2 kts 207°
2026-04-22 00:11 -15.64860 -56.12036 620 ft 2 kts 184°
2026-04-22 00:11 -15.64845 -56.12038 620 ft 2 kts 160°
2026-04-22 00:11 -15.64839 -56.12041 620 ft 0 kts 152°
2026-04-22 00:13 -15.64840 -56.12040 620 ft 0 kts 152°
2026-04-22 00:13 -15.64849 -56.12035 620 ft 3 kts 152°
2026-04-22 00:13 -15.64881 -56.12017 619 ft 7 kts 152°
2026-04-22 00:13 -15.64941 -56.11985 617 ft 12 kts 153°
2026-04-22 00:14 -15.65017 -56.11946 615 ft 13 kts 153°
2026-04-22 00:14 -15.65083 -56.11901 614 ft 10 kts 112°
2026-04-22 00:14 -15.65058 -56.11822 613 ft 12 kts 47°
2026-04-22 00:14 -15.64976 -56.11839 613 ft 12 kts 333°
2026-04-22 00:15 -15.64897 -56.11881 616 ft 12 kts 333°
2026-04-22 00:15 -15.64819 -56.11922 618 ft 12 kts 333°
2026-04-22 00:15 -15.64739 -56.11965 619 ft 14 kts 333°
2026-04-22 00:15 -15.64643 -56.12016 620 ft 16 kts 333°
2026-04-22 00:16 -15.64537 -56.12073 624 ft 17 kts 333°
2026-04-22 00:16 -15.64438 -56.12143 627 ft 16 kts 295°
2026-04-22 00:16 -15.64401 -56.12156 628 ft 6 kts 98°
2026-04-22 00:16 -15.64409 -56.12143 628 ft 0 kts 143°
2026-04-22 00:17 -15.64450 -56.12118 626 ft 22 kts 152°
2026-04-22 00:17 -15.64788 -56.11937 619 ft 84 kts 153°
2026-04-22 00:17 -15.65476 -56.11571 602 ft 138 kts 153°
2026-04-22 00:17 -15.66424 -56.11061 870 ft 159 kts 153°
2026-04-22 00:18 -15.67412 -56.10551 1474 ft 160 kts 164°
2026-04-22 00:18 -15.68588 -56.10453 1728 ft 190 kts 187°
2026-04-22 00:18 -15.69855 -56.11042 2241 ft 208 kts 209°
2026-04-22 00:18 -15.71013 -56.12170 2302 ft 253 kts 240°
2026-04-22 00:19 -15.71985 -56.13726 3002 ft 265 kts 229°
2026-04-22 00:19 -15.73216 -56.15101 4074 ft 262 kts 223°
2026-04-22 00:19 -15.74538 -56.16378 4986 ft 264 kts 220°
2026-04-22 00:19 -15.75652 -56.17889 5712 ft 271 kts 242°
2026-04-22 00:20 -15.76531 -56.19622 6423 ft 276 kts 240°
2026-04-22 00:20 -15.77438 -56.21397 7155 ft 280 kts 241°
2026-04-22 00:20 -15.78355 -56.23195 7874 ft 284 kts 241°
2026-04-22 00:20 -15.78877 -56.25165 8529 ft 289 kts 272°
2026-04-22 00:21 -15.78320 -56.27112 9180 ft 288 kts 304°
2026-04-22 00:21 -15.77180 -56.28824 9892 ft 290 kts 307°
2026-04-22 00:21 -15.76008 -56.30535 10509 ft 295 kts 308°
2026-04-22 00:21 -15.74710 -56.32227 10917 ft 304 kts 321°
2026-04-22 00:22 -15.72855 -56.33199 11360 ft 307 kts 347°
2026-04-22 00:22 -15.70763 -56.33794 11869 ft 315 kts 347°
2026-04-22 00:22 -15.68627 -56.34378 12351 ft 324 kts 348°
2026-04-22 00:22 -15.66461 -56.34958 13009 ft 325 kts 348°
2026-04-22 00:23 -15.64277 -56.35535 13704 ft 325 kts 348°
2026-04-22 00:23 -15.62080 -56.36114 14337 ft 327 kts 348°
2026-04-22 00:23 -15.59872 -56.36694 14940 ft 329 kts 348°
2026-04-22 00:23 -15.57679 -56.37270 15526 ft 331 kts 348°
2026-04-22 00:24 -15.55434 -56.37859 16114 ft 333 kts 348°
2026-04-22 00:24 -15.53152 -56.38067 16643 ft 332 kts
2026-04-22 00:24 -15.50860 -56.37756 17207 ft 333 kts
2026-04-22 00:24 -15.48598 -56.37429 17723 ft 335 kts
2026-04-22 00:25 -15.46267 -56.37078 18279 ft 336 kts
2026-04-22 00:25 -15.44007 -56.36732 18980 ft 331 kts
2026-04-22 00:25 -15.41746 -56.36384 19623 ft 328 kts
2026-04-22 00:25 -15.39489 -56.36036 20185 ft 327 kts
2026-04-22 00:26 -15.37258 -56.35693 20717 ft 327 kts
2026-04-22 00:26 -15.35009 -56.35346 21249 ft 326 kts
2026-04-22 00:26 -15.32804 -56.35006 21765 ft 325 kts
2026-04-22 00:26 -15.30575 -56.34662 22270 ft 324 kts
2026-04-22 00:27 -15.28348 -56.34319 22759 ft 323 kts
2026-04-22 00:27 -15.26149 -56.33980 23226 ft 322 kts
2026-04-22 00:27 -15.23948 -56.33641 23681 ft 322 kts
2026-04-22 00:27 -15.21737 -56.33301 24128 ft 321 kts
2026-04-22 00:28 -15.19523 -56.32960 24562 ft 320 kts
2026-04-22 00:28 -15.17342 -56.32625 24972 ft 320 kts
2026-04-22 00:28 -15.15165 -56.32290 25367 ft 320 kts
2026-04-22 00:28 -15.12970 -56.31952 25760 ft 319 kts
2026-04-22 00:29 -15.10756 -56.31612 26144 ft 319 kts
2026-04-22 00:29 -15.08568 -56.31275 26510 ft 319 kts
2026-04-22 00:29 -15.06362 -56.30936 26854 ft 319 kts
2026-04-22 00:29 -15.04160 -56.30599 26929 ft 328 kts
2026-04-22 00:30 -15.01869 -56.30249 26941 ft 334 kts
2026-04-22 00:30 -14.99555 -56.29894 26942 ft 341 kts
2026-04-22 00:30 -14.97181 -56.29530 26942 ft 347 kts
2026-04-22 00:30 -14.94798 -56.29162 26941 ft 354 kts
2026-04-22 00:31 -14.92343 -56.28760 26943 ft 358 kts
2026-04-22 00:31 -14.89849 -56.28395 26941 ft 364 kts
2026-04-22 00:31 -14.87332 -56.28014 26946 ft 370 kts
2026-04-22 00:31 -14.84742 -56.27618 26946 ft 376 kts
2026-04-22 00:32 -14.82174 -56.27223 26943 ft 377 kts
2026-04-22 00:32 -14.79563 -56.26823 26941 ft 378 kts
2026-04-22 00:32 -14.77024 -56.26143 26921 ft 382 kts 24°
2026-04-22 00:32 -14.74854 -56.24585 26964 ft 383 kts 31°
2026-04-22 00:33 -14.72419 -56.23580 26951 ft 374 kts
2026-04-22 00:33 -14.69882 -56.23730 26950 ft 370 kts 343°
2026-04-22 00:33 -14.67417 -56.24532 26937 ft 370 kts 351°
2026-04-22 00:33 -14.64872 -56.24462 26974 ft 371 kts
2026-04-22 00:34 -14.62330 -56.24143 26941 ft 372 kts
2026-04-22 00:34 -14.59755 -56.23775 26940 ft 373 kts
2026-04-22 00:34 -14.57183 -56.23390 26939 ft 373 kts
2026-04-22 00:34 -14.54635 -56.23003 26939 ft 374 kts
2026-04-22 00:35 -14.52062 -56.22610 26939 ft 374 kts
2026-04-22 00:35 -14.49491 -56.22218 26938 ft 374 kts
2026-04-22 00:35 -14.46943 -56.21828 26939 ft 375 kts
2026-04-22 00:35 -14.44363 -56.21434 26938 ft 375 kts
2026-04-22 00:36 -14.41773 -56.21038 26938 ft 375 kts
2026-04-22 00:36 -14.39198 -56.20644 26938 ft 376 kts
2026-04-22 00:36 -14.36645 -56.20255 26938 ft 376 kts
2026-04-22 00:36 -14.34065 -56.19861 26937 ft 376 kts
2026-04-22 00:37 -14.31472 -56.19465 26937 ft 376 kts
2026-04-22 00:37 -14.28901 -56.19072 26937 ft 376 kts
2026-04-22 00:37 -14.26296 -56.18675 26937 ft 377 kts
2026-04-22 00:37 -14.23711 -56.18280 26937 ft 377 kts
2026-04-22 00:38 -14.21156 -56.17891 26937 ft 377 kts
2026-04-22 00:38 -14.18548 -56.17493 26937 ft 377 kts
2026-04-22 00:38 -14.15954 -56.17097 26937 ft 377 kts
2026-04-22 00:38 -14.13392 -56.16707 26936 ft 377 kts
2026-04-22 00:39 -14.10798 -56.16312 26936 ft 377 kts
2026-04-22 00:39 -14.08197 -56.15916 26936 ft 378 kts
2026-04-22 00:39 -14.05606 -56.15521 26936 ft 378 kts
2026-04-22 00:39 -14.02990 -56.15123 26936 ft 378 kts
2026-04-22 00:40 -14.00405 -56.14728 26935 ft 378 kts
2026-04-22 00:40 -13.97818 -56.14335 26935 ft 378 kts
2026-04-22 00:40 -13.95203 -56.13937 26935 ft 378 kts
2026-04-22 00:40 -13.92622 -56.13544 26935 ft 378 kts
2026-04-22 00:41 -13.90034 -56.13150 26935 ft 378 kts
2026-04-22 00:41 -13.87402 -56.12750 26941 ft 378 kts
2026-04-22 00:41 -13.84821 -56.12357 26941 ft 378 kts
2026-04-22 00:41 -13.82231 -56.11964 26941 ft 379 kts
2026-04-22 00:42 -13.79609 -56.11565 26941 ft 379 kts
2026-04-22 00:42 -13.76990 -56.11168 26940 ft 379 kts
2026-04-22 00:42 -13.74436 -56.10564 26944 ft 381 kts 13°
2026-04-22 00:42 -13.71856 -56.09871 26941 ft 381 kts 13°
2026-04-22 00:43 -13.69293 -56.09157 26940 ft 381 kts 13°
2026-04-22 00:43 -13.66756 -56.08442 26940 ft 381 kts 13°
2026-04-22 00:43 -13.64188 -56.07718 26940 ft 382 kts 13°
2026-04-22 00:43 -13.61661 -56.07003 26939 ft 382 kts 13°
2026-04-22 00:44 -13.59088 -56.06275 26939 ft 382 kts 13°
2026-04-22 00:44 -13.56545 -56.05557 26939 ft 382 kts 13°
2026-04-22 00:44 -13.53970 -56.04829 26939 ft 382 kts 13°
2026-04-22 00:44 -13.51424 -56.04110 26939 ft 382 kts 13°
2026-04-22 00:45 -13.48856 -56.03384 26939 ft 382 kts 13°
2026-04-22 00:45 -13.46306 -56.02664 26939 ft 383 kts 13°
2026-04-22 00:45 -13.43758 -56.01944 26939 ft 383 kts 13°
2026-04-22 00:45 -13.41209 -56.01225 26938 ft 383 kts 13°
2026-04-22 00:46 -13.38628 -56.00496 26938 ft 383 kts 13°
2026-04-22 00:46 -13.36076 -55.99777 26938 ft 383 kts 13°
2026-04-22 00:46 -13.33525 -55.99056 26938 ft 383 kts 13°
2026-04-22 00:46 -13.30946 -55.98329 26938 ft 383 kts 13°
2026-04-22 00:47 -13.28402 -55.97611 26938 ft 383 kts 13°
2026-04-22 00:47 -13.25821 -55.96884 26725 ft 379 kts 13°
2026-04-22 00:47 -13.23306 -55.96176 26232 ft 375 kts 13°
2026-04-22 00:47 -13.20831 -55.95479 25758 ft 372 kts 13°
2026-04-22 00:48 -13.18312 -55.94770 25270 ft 369 kts 14°
2026-04-22 00:48 -13.15853 -55.94077 24790 ft 366 kts 14°
2026-04-22 00:48 -13.13411 -55.93390 24309 ft 363 kts 14°
2026-04-22 00:48 -13.10982 -55.92706 23827 ft 360 kts 14°
2026-04-22 00:49 -13.08608 -55.92038 23386 ft 357 kts 14°
2026-04-22 00:49 -13.06233 -55.91369 22955 ft 354 kts 15°
2026-04-22 00:49 -13.03864 -55.90702 22520 ft 351 kts 15°
2026-04-22 00:49 -13.01550 -55.90052 22092 ft 348 kts 15°
2026-04-22 00:50 -12.99220 -55.89396 21636 ft 347 kts 15°
2026-04-22 00:50 -12.96902 -55.88744 21159 ft 346 kts 16°
2026-04-22 00:50 -12.94611 -55.88100 20658 ft 346 kts 16°
2026-04-22 00:50 -12.92383 -55.87473 20174 ft 346 kts 16°
2026-04-22 00:51 -12.90094 -55.86830 19676 ft 345 kts 16°
2026-04-22 00:51 -12.87760 -55.86174 19175 ft 345 kts 17°
2026-04-22 00:51 -12.85447 -55.85524 18677 ft 345 kts 17°
2026-04-22 00:51 -12.83160 -55.84881 18188 ft 344 kts 17°
2026-04-22 00:52 -12.80890 -55.84244 17760 ft 331 kts 17°
2026-04-22 00:52 -12.78692 -55.83627 17322 ft 327 kts 17°
2026-04-22 00:52 -12.76529 -55.83019 16899 ft 324 kts 17°
2026-04-22 00:52 -12.74369 -55.82413 16474 ft 322 kts 18°
2026-04-22 00:53 -12.72215 -55.81808 16052 ft 321 kts 18°
2026-04-22 00:53 -12.70085 -55.81210 15652 ft 318 kts 18°
2026-04-22 00:53 -12.67959 -55.80613 15250 ft 316 kts 18°
2026-04-22 00:53 -12.65835 -55.80018 14846 ft 315 kts 18°
2026-04-22 00:54 -12.63752 -55.79433 14447 ft 314 kts 18°
2026-04-22 00:54 -12.61644 -55.78842 14043 ft 312 kts 19°
2026-04-22 00:54 -12.59577 -55.78262 13645 ft 311 kts 19°
2026-04-22 00:54 -12.57488 -55.77677 13241 ft 311 kts 19°
2026-04-22 00:55 -12.55400 -55.77091 12837 ft 310 kts 19°
2026-04-22 00:55 -12.53347 -55.76516 12439 ft 310 kts 19°
2026-04-22 00:55 -12.49222 -55.75360 11629 ft 304 kts 19°
2026-04-22 00:56 -12.47200 -55.74793 11243 ft 298 kts 19°
2026-04-22 00:56 -12.45223 -55.74240 10850 ft 288 kts 19°
2026-04-22 00:56 -12.43336 -55.73712 10470 ft 277 kts 19°
2026-04-22 00:56 -12.41515 -55.73202 10105 ft 268 kts 19°
2026-04-22 00:57 -12.39719 -55.72698 9748 ft 267 kts 19°
2026-04-22 00:57 -12.37934 -55.72197 9394 ft 266 kts 19°
2026-04-22 00:57 -12.36163 -55.71701 9041 ft 264 kts 19°
2026-04-22 00:57 -12.34418 -55.71213 8693 ft 264 kts 19°
2026-04-22 00:58 -12.32657 -55.70720 8341 ft 263 kts 19°
2026-04-22 00:58 -12.30877 -55.70222 7984 ft 262 kts 19°
2026-04-22 00:58 -12.29145 -55.69737 7637 ft 262 kts 19°
2026-04-22 00:58 -12.27381 -55.69244 7283 ft 261 kts 18°
2026-04-22 00:59 -12.25629 -55.68754 6959 ft 261 kts 18°
2026-04-22 00:59 -12.23898 -55.68270 6636 ft 261 kts 18°
2026-04-22 00:59 -12.22144 -55.67779 6309 ft 261 kts 18°
2026-04-22 00:59 -12.20420 -55.67297 5988 ft 260 kts 18°
2026-04-22 01:00 -12.18694 -55.66816 5647 ft 253 kts 18°
2026-04-22 01:00 -12.17037 -55.66353 5289 ft 247 kts 18°
2026-04-22 01:00 -12.15383 -55.65890 4928 ft 242 kts 18°
2026-04-22 01:00 -12.13786 -55.65445 4644 ft 234 kts 18°
2026-04-22 01:01 -12.12246 -55.65028 4338 ft 229 kts 17°
2026-04-22 01:01 -12.10720 -55.64616 4032 ft 224 kts 17°
2026-04-22 01:01 -12.09228 -55.64214 3725 ft 220 kts 17°
2026-04-22 01:01 -12.07762 -55.63818 3419 ft 217 kts 17°
2026-04-22 01:02 -12.06319 -55.63430 3115 ft 214 kts 17°
2026-04-22 01:02 -12.04892 -55.63045 2861 ft 207 kts 17°
2026-04-22 01:02 -12.03551 -55.62685 2842 ft 189 kts 17°
2026-04-22 01:02 -12.02372 -55.62369 2802 ft 172 kts 17°
2026-04-22 01:03 -12.01276 -55.62074 2768 ft 147 kts 17°
2026-04-22 01:03 -12.00234 -55.61792 2772 ft 165 kts 17°
2026-04-22 01:03 -11.99134 -55.61496 2772 ft 157 kts 17°
2026-04-22 01:03 -11.98123 -55.61224 2725 ft 147 kts 17°
2026-04-22 01:04 -11.97144 -55.60959 2621 ft 146 kts 17°
2026-04-22 01:04 -11.96165 -55.60695 2451 ft 147 kts 17°
2026-04-22 01:04 -11.95172 -55.60426 2276 ft 147 kts 17°
2026-04-22 01:04 -11.94183 -55.60159 2109 ft 147 kts 17°
2026-04-22 01:05 -11.93193 -55.59892 1969 ft 148 kts 17°
2026-04-22 01:05 -11.92191 -55.59622 1802 ft 150 kts 17°
2026-04-22 01:05 -11.91183 -55.59358 1604 ft 152 kts 16°
2026-04-22 01:05 -11.90159 -55.59090 1424 ft 149 kts 16°
2026-04-22 01:06 -11.89157 -55.58812 1253 ft 146 kts 17°
2026-04-22 01:06 -11.88253 -55.58564 1230 ft 120 kts 15°
2026-04-22 01:06 -11.87795 -55.58442 1229 ft 33 kts 15°
2026-04-22 01:06 -11.87594 -55.58387 1228 ft 19 kts 14°
2026-04-22 01:07 -11.87495 -55.58380 1231 ft 6 kts 345°
2026-04-22 01:07 -11.87493 -55.58366 1230 ft 2 kts 173°
2026-04-22 01:07 -11.87505 -55.58368 1230 ft 3 kts 189°
2026-04-22 01:07 -11.87541 -55.58375 1229 ft 6 kts 194°
2026-04-22 01:08 -11.87601 -55.58392 1228 ft 11 kts 195°
2026-04-22 01:08 -11.87699 -55.58418 1227 ft 15 kts 194°
2026-04-22 01:08 -11.87792 -55.58439 1229 ft 11 kts 174°
2026-04-22 01:08 -11.87831 -55.58377 1228 ft 10 kts 105°
2026-04-22 01:09 -11.87846 -55.58307 1228 ft 9 kts 81°
2026-04-22 01:09 -11.87805 -55.58274 1228 ft 3 kts 57°
2026-04-22 01:09 -11.87805 -55.58253 1228 ft 2 kts 97°
2026-04-22 01:09 -11.87808 -55.58238 1228 ft 1 kts 104°
2026-04-22 01:10 -11.87810 -55.58228 1228 ft 1 kts 105°
2026-04-22 01:10 -11.87811 -55.58222 1228 ft 0 kts 105°